Location: McFarlands Corners
(41.4117°N, 81.3382°W)
Time: 12:46:34
(UTC+00:00)

Tiros 1 - Pass Details

Date: 23 February 2026
Orbit: 618 x 650 km, 48.4° (Epoch: 16 March)

Event Time Altitude Azimuth Distance (km) Brightness Sun altitude
Rises 09:54:45 0° 180° (S) 2,925 - -25.8°
Exits shadow 09:55:55 - 173° (S) 2,598 10.2 -25.6°
Reaches altitude 10° 09:59:06 10° 141° (SE) 2,013 10.0 -25.0°
Maximum altitude 10:00:03 11° 130° (SE) 1,975 10.1 -24.9°
Drops below altitude 10° 10:01:00 10° 118° (ESE) 2,012 10.4 -24.7°
Sets 10:05:20 0° 79° (E) 2,915 12.0 -23.9°
